Погода в Бакльеу

Вьетнам     9°17′06″N   105°43′23″E
темп.,
°C
ветер,
м/с
пор.,
м/с
влажн.,
%
обл.,
%
осадки,
мм/ч
давл.,
гПа
погр.,
м
17 августа, ср
ср1701:00+27зюз46839 0.1 1009356
04:00+27юз458464 0.9 1008278
07:00+27зюз468445 1.1 1009384
10:00+30юз6769100 0.3 10101130
13:00+30ююз776897 1.1 1008990
16:00+29ююз7874100 0.8 1006705
19:00+28зюз697722 1.4 1007499
22:00+27зюз47835 0.3 1010346
18 августа, чт
чт1801:00+27зюз47855 0.4 1009357
04:00+26зюз478758 0.0 1007352
07:00+27зюз488292 0.0 1009457
10:00+30зюз5767100 0.3 10091123
13:00+30юз356778 2.1 1007512
16:00+31з356340 2.7 1005907
19:00+28з4877100 3.0 1007248
22:00+27з478282 0.0 1009302
19 августа, пт
пт1901:00+26зюз4786100 0.4 1007325
04:00+26зюз4689100 0.6 1006256
07:00+27зюз488792 1.2 1007354
10:00+30з676895 0.3 10081143
13:00+31з5765100 3.3 1006899
16:00+31з6863100 1.2 10041072
19:00+28з697579 1.3 1006430
22:00+27зюз5883100 0.0 1008423
20 августа, сб
сб2001:00+27зюз5984100 0.0 1007426
04:00+26зюз4886100 0.0 1006362
07:00+27зюз4886100 0.0 1007450
10:00+30з6868100 0.0 10081221
13:00+31з5862100 0.4 10051216
16:00+31з696490 0.9 1004455
19:00+28з6976100 0.9 1006409
22:00+27зюз5883100 0.0 1007431
21 августа, вс
вс2101:00+27юз4785100 0.0 1006370
04:00+27зюз5985100 0.1 1005388
07:00+27з5983100 0.1 1006573
10:00+30зюз576896 0.4 10071133
13:00+30зюз6767100 3.3 10051031
16:00+30зюз6770100 3.9 10051026
19:00+28зюз5879100 5.6 1006378
22:00+27зюз4785100 0.1 1008371